Regional Weather Roundup
Issued by NWS

Home | Current Version | Previous Version | Text Only | Print | Product List | Glossary On
Versions: 1 2 3 4 5 6 7 8 9 10 11 12 13 14 15 16 17 18 19 20 21 22 23 24 25 26 27 28 29 30 31 32 33 34 35 36 37 38 39 40 41 42 43 44 45 46 47 48 49 50
000
ASUS43 KLSX 141007
RWRMO

WEATHER SUMMARY FOR MISSOURI
NATIONAL WEATHER SERVICE SPRINGFIELD MO
500 AM CDT MON JUL 14 2014

NOTE: "FAIR" INDICATES FEW OR NO CLOUDS BELOW 12,000 FEET WITH NO
       SIGNIFICANT WEATHER AND/OR OBSTRUCTIONS TO VISIBILITY.
       CURRENT SKY AND/OR WEATHER CONDITIONS ARE NOT AVAILABLE FOR
       CHILLICOTHE AND FARMINGTON.

MOZ001>031-035>038-043-044-053-054-141100-
...NORTHERN AND WESTERN MISSOURI...

CITY           SKY/WX    TMP DP  RH WIND       PRES   REMARKS
KANSAS CTY INT CLEAR     69  66  90 SW6       29.96R
KANSAS C DTWN  CLEAR     73  69  87 CALM      29.95R
LEE`S SUMMIT   CLEAR     70  67  90 CALM      29.96R
ST JOSEPH      PTCLDY    68  67  96 CALM      29.96R FOG
CHILLICOTHE      N/A     70  67  90 CALM      29.95R
KIRKSVILLE     CLEAR     68  67  96 SW5       29.93S FOG

$$
MOZ066>068-077>081-088>096-101>105-141100-
...SOUTHWEST MISSOURI...

CITY           SKY/WX    TMP DP  RH WIND       PRES   REMARKS
SPRINGFIELD    MOCLDY    72  71  97 CALM      29.99R
JOPLIN         PTCLDY    70  69  97 CALM      29.98S

$$
MOZ032>034-039>042-045>050-055>058-069>072-141100-
...CENTRAL MISSOURI...

CITY           SKY/WX    TMP DP  RH WIND       PRES   REMARKS
COLUMBIA       FOG       70  70 100 S3        29.95F VSB 1/4
JEFFERSON CITY CLOUDY    72  71  97 NW3       29.94F FOG
ROLLA          FOG       69  68  96 CALM      29.95F VSB 1/4
SEDALIA        CLEAR     71  69  93 SW3       29.96F
WHITEMAN AFB   PTCLDY    68  64  86 S6        29.95S
OSAGE BEACH    CLOUDY    72  68  88 CALM      29.95F VSB<1/4

$$
MOZ051-052-059>065-141100-
...EAST CENTRAL MISSOURI...

CITY           SKY/WX    TMP DP  RH WIND       PRES   REMARKS
ST LOUIS INTL  CLOUDY    75  72  90 W5        29.93S
SPIRIT OF STL  CLOUDY    72  70  93 CALM      29.92S
ST CHARLES     CLOUDY    74  72  93 W7        29.91S

$$
MOZ072>076-082>087-097>100-106>115-141100-
...SOUTH CENTRAL AND SOUTHEAST MISSOURI...

CITY           SKY/WX    TMP DP  RH WIND       PRES   REMARKS
CAPE GIRARDEAU TSTM      72  70  93 SW3       29.94R FOG
FARMINGTON     CLOUDY    70  70 100 W3        29.97R
POPLAR BLUFF   TSTM      72  69  90 CALM      29.94F
WEST PLAINS    CLOUDY    69  66  90 CALM      29.97F

$$


USA.gov is the U.S. government's official web portal to all federal, state and local government web resources and services.